Regional Weather Roundup
Issued by NWS

Home | Current Version | Previous Version | Graphics & Text | Print | Product List | Glossary On
Versions: 1 2 3 4 5 6 7 8 9 10 11 12 13 14 15 16 17 18 19 20 21 22 23 24 25 26 27 28 29 30 31 32 33 34 35 36 37 38 39 40 41 42 43 44 45 46 47 48 49 50
000
ASUS43 KOAX 232010
RWRNE

WEATHER ROUNDUP FOR NEBRASKA
NATIONAL WEATHER SERVICE OMAHA NE
300 PM CDT WED APR 23 2014

NOTES: SATELLITE DATA IS BEING USED TO AUGMENT CLOUD COVER ABOVE
       12000 FEET.
       "FAIR" INDICATES FEW OR NO CLOUDS BELOW 12,000 FEET WITH NO
       SIGNIFICANT WEATHER AND/OR OBSTRUCTIONS TO VISIBILITY.

  * THESE STATIONS DO NOT REPORT WEATHER SUCH AS RAIN...SNOW OR FOG.

NEZ001>004-019>022-054>056-232100-
NEBRASKA PANHANDLE

CITY           SKY/WX    TMP DP  RH WIND       PRES   REMARKS
SCOTTSBLUFF    SUNNY     67  21  17 W29G43    29.66S
ALLIANCE       MOSUNNY   69  21  16 NW31G39   29.63S
CHADRON        SUNNY     68  25  19 W28G37    29.62R
KIMBALL        MOSUNNY   64  23  21 N20G32    29.65R
SIDNEY         SUNNY     70  28  21 N29G35    29.65F
$$

NEZ057>060-069>072-079>082-232100-
SOUTHWEST NEBRASKA

CITY           SKY/WX    TMP DP  RH WIND       PRES   REMARKS
NORTH PLATTE   CLOUDY    75  44  33 NW14G23   29.55F
IMPERIAL       MOSUNNY   79  37  22 N17G29    29.57S
LEXINGTON      PTSUNNY   80  48  32 SW10      29.53S
MCCOOK         CLOUDY    76  44  32 NW14      29.56R
OGALLALA       SUNNY     75  28  17 NW24      29.59S
$$

NEZ005>010-023>029-035>040-094-232100-
NORTH CENTRAL NEBRASKA

CITY           SKY/WX    TMP DP  RH WIND       PRES   REMARKS
VALENTINE      CLOUDY    77  39  25 NW22G28   29.53R
AINSWORTH      PTSUNNY   77  35  21 W23       29.53R
BROKEN BOW     CLOUDY    77  45  32 W15       29.54R
O`NEILL        MOSUNNY   76  41  28 S18G26    29.54F
ORD            MOSUNNY   79  49  34 S18G28    29.51F
THEDFORD       CLOUDY    78  26  15 NW23G32   29.57R
$$

NEZ041-046>049-061>064-073>077-083>087-232100-
SOUTH CENTRAL NEBRASKA

CITY           SKY/WX    TMP DP  RH WIND       PRES   REMARKS
GRAND ISLAND   MOSUNNY   76  48  37 S28G35    29.58F
AURORA         MOSUNNY   73  47  39 S20G32    29.61F
HASTINGS       PTSUNNY   78  48  34 S22G39    29.56F
HEBRON         CLOUDY    76  46  34 S24G35    29.62F
HOLDREGE       MOSUNNY   82  46  27 S25G37    29.53F
KEARNEY *      MOSUNNY   82  50  32 SW23G38   29.53F
YORK           MOSUNNY   68  45  42 S23G32    29.65R
$$

NEZ011>018-030>034-042>045-232100-
NORTHEAST NEBRASKA

CITY           SKY/WX    TMP DP  RH WIND       PRES   REMARKS
NORFOLK        SUNNY     70  44  39 S21G37    29.61F
ALBION         MOSUNNY   73  44  35 S26G36    29.58F
BLAIR          LGT RAIN  55  44  66 SE20G29   29.70F
COLUMBUS *     PTSUNNY   70  46  43 S28G37    29.65S
FREMONT        LGT RAIN  58  45  61 SE20G28   29.69S
TEKAMAH        CLOUDY    59  43  55 SE32G39   29.71F
$$

NEZ050>053-065>068-078-088>093-232100-
SOUTHEAST NEBRASKA

CITY           SKY/WX    TMP DP  RH WIND       PRES   REMARKS
LINCOLN        CLOUDY    63  45  51 S10       29.69S
OMAHA EPPLEY   CLOUDY    58  44  60 SE17      29.72R
BEATRICE       CLOUDY    63  46  52 SE22G30   29.64F
FALLS CITY     CLOUDY    58  43  57 SE20      29.78F
NEBRASKA CITY  LGT RAIN  54  45  70 S22G37    29.73F
PLATTSMOUTH    LGT RAIN  54  45  70 SE21G32   29.72F
$$

NEZ044-045-051>053-067-232100-
OMAHA AREA

CITY           SKY/WX    TMP DP  RH WIND       PRES   REMARKS
OMAHA EPPLEY   CLOUDY    58  44  60 SE17      29.72R
BLAIR          LGT RAIN  55  44  66 SE20G29   29.70F
FREMONT        LGT RAIN  58  45  61 SE20G28   29.69S
MILLARD        RAIN      57  44  62 SE12G23   29.73R
OFFUTT AFB     MOSUNNY   55  48  76 SE29G37   29.70F
PLATTSMOUTH    LGT RAIN  54  45  70 SE21G32   29.72F
WAHOO          FAIR      59  44  56 S25       29.70S
$$



USA.gov is the U.S. government's official web portal to all federal, state and local government web resources and services.